QPF
0.00 0.00 0.00 0.00 0.00 0.00 0.00 0.00 0.00 0.01 0.00 0.00 0.00 0.01 0.01 0.00 0.00 0.00 0.00 0.00 0.00 0.00 0.00 0.00 0.00 0.00 0.00 0.00 0.00 0.00 0.00 0.00 0.00 0.00 0.00 0.00 0.00 0.00 0.00 0.00 0.00 0.00 0.00 0.00 0.00 0.00 0.00 0.00 0.00
0.00 0.00 0.00 0.00 0.00 0.00 0.00 0.00 0.00 0.00 0.01 0.01 0.01 0.01 0.00 0.00 0.00 0.00 0.00 0.00 0.00 0.00 0.00 0.00 0.00 0.00 0.00 0.00 0.00 0.00 0.00 0.00 0.00 0.00 0.00 0.00 0.00 0.00 0.00 0.00 0.00 0.00 0.00 0.00 0.00 0.00 0.00 0.00 0.00
0.00 0.00 0.00 0.00 0.00 0.00 0.00 0.00 0.00 0.00 0.01 0.02 0.02 0.01 0.00 0.00 0.00 0.00 0.00 0.00 0.00 0.00 0.00 0.00 0.00 0.00 0.00 0.00 0.00 0.00 0.00 0.00 0.00 0.00 0.00 0.00 0.00 0.00 0.00 0.00 0.00 0.00 0.00 0.00 0.00 0.00 0.00 0.00 0.00
0.00 0.00 0.00 0.00 0.00 0.00 0.00 0.00 0.00 0.00 0.00 0.02 0.02 0.01 0.01 0.00 0.00 0.00 0.00 0.00 0.00 0.00 0.00 0.00 0.00 0.00 0.00 0.00 0.00 0.00 0.00 0.00 0.00 0.00 0.00 0.00 0.00 0.00 0.00 0.00 0.00 0.00 0.00 0.00 0.00 0.00 0.00 0.00 0.00
0.00 0.00 0.00 0.00 0.00 0.00 0.00 0.00 0.00 0.00 0.00 0.01 0.01 0.01 0.00 0.00 0.00 0.00 0.00 0.00 0.00 0.00 0.00 0.00 0.01 0.01 0.00 0.00 0.00 0.00 0.00 0.00 0.00 0.00 0.00 0.00 0.00 0.00 0.00 0.00 0.00 0.00 0.00 0.00 0.00 0.00 0.00 0.00 0.00
0.00 0.00 0.00 0.00 0.00 0.00 0.00 0.00 0.00 0.00 0.00 0.00 0.00 0.00 0.00 0.00 0.00 0.00 0.00 0.00 0.00 0.00 0.00 0.00 0.00 0.00 0.00 0.00 0.00 0.00 0.00 0.00 0.00 0.00 0.00 0.00 0.00 0.00 0.00 0.00 0.00 0.00 0.00 0.00 0.00 0.00 0.00 0.00 0.00
0.00 0.00 0.00 0.00 0.00 0.00 0.00 0.00 0.00 0.00 0.00 0.00 0.00 0.00 0.00 0.00 0.00 0.00 0.00 0.00 0.00 0.00 0.00 0.00 0.00 0.00 0.01 0.00 0.00 0.00 0.00 0.00 0.00 0.00 0.00 0.00 0.00 0.00 0.00 0.00 0.00 0.00 0.00 0.00 0.00 0.00 0.00 0.00 0.00
0.00 0.00 0.00 0.00 0.00 0.00 0.00 0.00 0.00 0.00 0.01 0.00 0.00 0.00 0.00 0.00 0.00 0.00 0.00 0.00 0.00 0.00 0.00 0.00 0.00 0.00 0.00 0.00 0.00 0.00 0.00 0.00 0.00 0.00 0.00 0.00 0.00 0.00 0.00 0.00 0.00 0.00 0.00 0.00 0.00 0.00 0.00 0.00 0.00
0.00 0.00 0.00 0.00 0.00 0.00 0.00 0.00 0.00 0.00 0.00 0.01 0.00 0.00 0.00 0.00 0.00 0.00 0.00 0.00 0.00 0.00 0.00 0.00 0.00 0.00 0.00 0.00 0.00 0.00 0.00 0.00 0.00 0.00 0.00 0.00 0.00 0.00 0.00 0.00 0.00 0.00 0.00 0.00 0.00 0.00 0.00 0.00 0.00
0.00 0.00 0.00 0.00 0.00 0.00 0.00 0.00 0.00 0.00 0.00 0.01 0.00 0.00 0.00 0.00 0.00 0.00 0.00 0.00 0.00 0.00 0.00 0.00 0.00 0.00 0.00 0.00 0.00 0.00 0.00 0.00 0.00 0.00 0.00 0.00 0.00 0.00 0.00 0.00 0.00 0.00 0.00 0.00 0.00 0.00 0.00 0.00 0.00
0.00 0.00 0.00 0.00 0.00 0.00 0.00 0.00 0.00 0.00 0.00 0.00 0.00 0.00 0.00 0.00 0.00 0.00 0.00 0.00 0.00 0.00 0.00 0.00 0.00 0.00 0.00 0.00 0.00 0.00 0.00 0.00 0.00 0.00 0.00 0.00 0.00 0.00 0.00 0.00 0.00 0.00 0.00 0.00 0.00 0.00 0.00 0.00 0.00
0.00 0.00 0.00 0.00 0.00 0.00 0.00 0.00 0.00 0.00 0.00 0.00 0.00 0.00 0.00 0.00 0.00 0.00 0.00 0.00 0.00 0.00 0.00 0.00 0.00 0.00 0.00 0.00 0.00 0.00 0.00 0.00 0.00 0.00 0.00 0.00 0.00 0.00 0.00 0.00 0.00 0.00 0.01 0.00 0.00 0.00 0.00 0.00 0.00
0.00 0.00 0.00 0.00 0.00 0.00 0.00 0.00 0.00 0.00 0.00 0.00 0.00 0.00 0.00 0.00 0.00 0.00 0.00 0.00 0.00 0.00 0.00 0.00 0.00 0.00 0.00 0.00 0.00 0.00 0.00 0.00 0.00 0.00 0.00 0.00 0.00 0.00 0.00 0.00 0.00 0.01 0.01 0.01 0.00 0.00 0.01 0.00 0.00
0.00 0.00 0.00 0.00 0.00 0.00 0.00 0.00 0.00 0.00 0.00 0.00 0.00 0.00 0.00 0.00 0.00 0.00 0.00 0.00 0.00 0.00 0.00 0.00 0.00 0.00 0.00 0.00 0.00 0.00 0.00 0.00 0.00 0.00 0.00 0.00 0.00 0.00 0.00 0.01 0.01 0.01 0.01 0.01 0.01 0.01 0.02 0.01 0.01
0.00 0.00 0.00 0.00 0.00 0.00 0.00 0.00 0.00 0.00 0.00 0.00 0.00 0.00 0.00 0.00 0.00 0.00 0.00 0.00 0.00 0.01 0.01 0.01 0.01 0.00 0.00 0.00 0.00 0.00 0.00 0.00 0.00 0.00 0.00 0.00 0.00 0.00 0.01 0.01 0.01 0.02 0.02 0.02 0.02 0.03 0.02 0.01 0.01
0.00 0.00 0.00 0.00 0.00 0.00 0.00 0.00 0.00 0.00 0.00 0.00 0.00 0.00 0.00 0.00 0.00 0.00 0.00 0.00 0.01 0.01 0.01 0.02 0.01 0.01 0.01 0.00 0.00 0.00 0.00 0.00 0.00 0.00 0.00 0.00 0.01 0.01 0.02 0.03 0.03 0.05 0.04 0.04 0.05 0.04 0.02 0.01 0.01
0.00 0.00 0.00 0.00 0.00 0.00 0.00 0.00 0.00 0.00 0.00 0.00 0.00 0.00 0.00 0.00 0.00 0.00 0.00 0.01 0.01 0.01 0.02 0.02 0.02 0.02 0.02 0.02 0.02 0.01 0.01 0.01 0.01 0.02 0.03 0.04 0.05 0.07 0.08 0.08 0.08 0.08 0.08 0.08 0.08 0.05 0.03 0.02 0.01
0.00 0.00 0.00 0.00 0.00 0.00 0.00 0.00 0.00 0.00 0.00 0.00 0.00 0.00 0.00 0.00 0.00 0.00 0.01 0.01 0.01 0.01 0.02 0.02 0.02 0.03 0.05 0.06 0.06 0.06 0.06 0.07 0.09 0.10 0.11 0.11 0.13 0.14 0.14 0.13 0.13 0.13 0.13 0.11 0.08 0.07 0.05 0.03 0.02
0.00 0.00 0.00 0.00 0.00 0.00 0.00 0.00 0.00 0.00 0.00 0.00 0.00 0.00 0.00 0.00 0.00 0.00 0.01 0.01 0.02 0.03 0.03 0.02 0.02 0.04 0.07 0.09 0.13 0.17 0.17 0.17 0.18 0.19 0.21 0.23 0.23 0.24 0.24 0.24 0.24 0.23 0.18 0.13 0.09 0.08 0.06 0.05 0.03
0.00 0.00 0.00 0.00 0.00 0.00 0.00 0.00 0.00 0.00 0.00 0.00 0.00 0.00 0.00 0.00 0.00 0.01 0.01 0.02 0.03 0.04 0.03 0.02 0.05 0.11 0.16 0.21 0.29 0.36 0.37 0.36 0.37 0.36 0.36 0.34 0.34 0.36 0.37 0.35 0.31 0.30 0.25 0.18 0.12 0.09 0.08 0.06 0.05
0.00 0.00 0.00 0.00 0.00 0.00 0.00 0.01 0.01 0.01 0.01 0.01 0.01 0.01 0.01 0.01 0.01 0.02 0.03 0.03 0.04 0.04 0.03 0.03 0.06 0.13 0.23 0.35 0.47 0.54 0.58 0.53 0.50 0.43 0.40 0.39 0.39 0.39 0.38 0.37 0.37 0.33 0.27 0.21 0.15 0.11 0.09 0.06 0.05
0.00 0.00 0.00 0.00 0.00 0.00 0.00 0.00 0.01 0.01 0.01 0.02 0.02 0.02 0.02 0.02 0.03 0.03 0.04 0.04 0.05 0.06 0.06 0.06 0.09 0.16 0.26 0.40 0.52 0.60 0.67 0.66 0.63 0.61 0.55 0.52 0.49 0.47 0.44 0.39 0.33 0.27 0.21 0.17 0.14 0.11 0.09 0.07 0.05
0.00 0.00 0.00 0.00 0.00 0.00 0.00 0.00 0.01 0.02 0.02 0.03 0.03 0.03 0.04 0.04 0.05 0.05 0.06 0.07 0.07 0.10 0.13 0.14 0.16 0.25 0.37 0.51 0.61 0.65 0.71 0.75 0.74 0.70 0.63 0.52 0.45 0.42 0.39 0.34 0.31 0.27 0.22 0.16 0.12 0.10 0.07 0.05 0.03
0.00 0.00 0.00 0.00 0.00 0.00 0.00 0.00 0.01 0.02 0.02 0.02 0.03 0.04 0.04 0.06 0.07 0.08 0.09 0.09 0.11 0.14 0.18 0.21 0.24 0.29 0.37 0.47 0.56 0.58 0.62 0.65 0.64 0.59 0.51 0.44 0.39 0.35 0.35 0.32 0.27 0.22 0.17 0.13 0.11 0.09 0.07 0.04 0.03
0.00 0.00 0.00 0.00 0.00 0.00 0.00 0.01 0.03 0.03 0.02 0.02 0.02 0.03 0.04 0.05 0.07 0.08 0.09 0.11 0.12 0.15 0.18 0.22 0.26 0.29 0.32 0.35 0.41 0.44 0.48 0.48 0.45 0.42 0.38 0.35 0.32 0.26 0.22 0.19 0.17 0.14 0.12 0.12 0.12 0.11 0.09 0.06 0.04
0.00 0.00 0.00 0.00 0.00 0.00 0.01 0.02 0.05 0.04 0.03 0.02 0.02 0.02 0.03 0.04 0.05 0.06 0.08 0.10 0.12 0.13 0.15 0.17 0.20 0.23 0.26 0.28 0.29 0.29 0.27 0.24 0.21 0.19 0.18 0.18 0.16 0.14 0.12 0.13 0.13 0.12 0.11 0.11 0.10 0.09 0.08 0.06 0.03
0.00 0.00 0.00 0.00 0.00 0.00 0.01 0.03 0.05 0.05 0.04 0.03 0.03 0.03 0.04 0.04 0.04 0.05 0.06 0.07 0.09 0.09 0.09 0.09 0.10 0.12 0.14 0.15 0.16 0.14 0.12 0.11 0.10 0.10 0.09 0.09 0.08 0.09 0.10 0.10 0.10 0.09 0.08 0.07 0.06 0.05 0.03 0.02 0.01
0.00 0.00 0.00 0.00 0.00 0.00 0.01 0.03 0.05 0.06 0.05 0.05 0.04 0.05 0.06 0.05 0.05 0.05 0.04 0.04 0.05 0.06 0.06 0.06 0.06 0.07 0.07 0.08 0.08 0.07 0.07 0.07 0.07 0.08 0.08 0.06 0.06 0.06 0.05 0.04 0.04 0.04 0.03 0.02 0.01 0.01 0.01 0.01 0.00
0.00 0.00 0.00 0.00 0.00 0.00 0.00 0.01 0.04 0.07 0.07 0.06 0.05 0.07 0.08 0.08 0.08 0.07 0.06 0.06 0.07 0.07 0.06 0.06 0.07 0.06 0.05 0.05 0.06 0.05 0.04 0.04 0.04 0.04 0.05 0.05 0.04 0.03 0.03 0.02 0.01 0.01 0.01 0.01 0.00 0.00 0.00 0.00 0.00
0.00 0.00 0.00 0.00 0.00 0.00 0.00 0.02 0.03 0.04 0.05 0.06 0.07 0.10 0.09 0.08 0.08 0.09 0.11 0.10 0.10 0.10 0.08 0.07 0.05 0.04 0.03 0.03 0.03 0.03 0.03 0.03 0.03 0.02 0.02 0.02 0.02 0.02 0.01 0.01 0.01 0.01 0.01 0.01 0.00 0.00 0.00 0.00 0.00
MSLP
1010.16 1011.12 1012.28 1013.45 1014.44 1015.11 1015.38 1015.25 1014.82 1014.19 1013.54 1012.98 1012.58 1012.35 1012.24 1012.20 1012.15 1012.04 1011.86 1011.66 1011.48 1011.40 1011.46 1011.68 1012.03 1012.46 1012.90 1013.27 1013.56 1013.75 1013.89 1014.02 1014.21 1014.48 1014.86 1015.30 1015.78 1016.22 1016.59 1016.85 1017.01 1017.09 1017.13 1017.18 1017.26 1017.38 1017.53 1017.68 1017.81
1010.57 1011.68 1012.93 1014.10 1015.01 1015.51 1015.55 1015.17 1014.47 1013.62 1012.78 1012.07 1011.58 1011.31 1011.21 1011.19 1011.20 1011.16 1011.07 1010.97 1010.90 1010.94 1011.13 1011.47 1011.94 1012.47 1012.99 1013.45 1013.80 1014.04 1014.22 1014.39 1014.59 1014.88 1015.25 1015.68 1016.12 1016.52 1016.84 1017.06 1017.18 1017.24 1017.27 1017.32 1017.41 1017.54 1017.69 1017.84 1017.95
1011.12 1012.34 1013.61 1014.71 1015.47 1015.78 1015.58 1014.96 1014.05 1013.02 1012.04 1011.25 1010.72 1010.44 1010.37 1010.40 1010.46 1010.49 1010.48 1010.46 1010.49 1010.62 1010.90 1011.34 1011.90 1012.51 1013.11 1013.63 1014.04 1014.33 1014.55 1014.75 1014.97 1015.25 1015.60 1016.00 1016.39 1016.74 1017.01 1017.18 1017.28 1017.33 1017.37 1017.44 1017.56 1017.71 1017.89 1018.04 1018.14
1011.80 1013.05 1014.26 1015.24 1015.82 1015.91 1015.50 1014.69 1013.61 1012.47 1011.43 1010.62 1010.11 1009.87 1009.84 1009.93 1010.05 1010.15 1010.20 1010.24 1010.33 1010.53 1010.86 1011.35 1011.96 1012.62 1013.25 1013.81 1014.25 1014.58 1014.83 1015.05 1015.28 1015.56 1015.89 1016.24 1016.59 1016.89 1017.12 1017.26 1017.35 1017.41 1017.48 1017.59 1017.75 1017.94 1018.14 1018.31 1018.42
1012.54 1013.74 1014.84 1015.65 1016.03 1015.91 1015.32 1014.36 1013.20 1012.02 1011.00 1010.24 1009.79 1009.63 1009.68 1009.84 1010.02 1010.17 1010.27 1010.36 1010.48 1010.70 1011.05 1011.54 1012.14 1012.79 1013.42 1013.98 1014.43 1014.78 1015.04 1015.28 1015.52 1015.79 1016.10 1016.43 1016.74 1017.01 1017.21 1017.35 1017.44 1017.53 1017.64 1017.80 1018.00 1018.23 1018.46 1018.64 1018.75
1013.25 1014.35 1015.28 1015.88 1016.05 1015.75 1015.02 1013.98 1012.81 1011.67 1010.73 1010.07 1009.74 1009.68 1009.82 1010.06 1010.31 1010.51 1010.64 1010.75 1010.88 1011.09 1011.42 1011.87 1012.42 1013.01 1013.60 1014.12 1014.55 1014.89 1015.17 1015.42 1015.67 1015.95 1016.26 1016.58 1016.87 1017.13 1017.33 1017.47 1017.59 1017.71 1017.86 1018.06 1018.30 1018.55 1018.79 1018.97 1019.08
1013.84 1014.78 1015.51 1015.90 1015.86 1015.40 1014.59 1013.54 1012.41 1011.38 1010.56 1010.05 1009.85 1009.91 1010.14 1010.46 1010.77 1011.01 1011.18 1011.30 1011.42 1011.61 1011.89 1012.27 1012.74 1013.25 1013.76 1014.22 1014.61 1014.94 1015.22 1015.49 1015.77 1016.07 1016.40 1016.73 1017.03 1017.29 1017.50 1017.67 1017.81 1017.95 1018.13 1018.34 1018.59 1018.84 1019.07 1019.24 1019.33
1014.23 1014.99 1015.50 1015.66 1015.45 1014.88 1014.03 1013.01 1011.98 1011.08 1010.42 1010.06 1009.98 1010.15 1010.47 1010.85 1011.21 1011.50 1011.70 1011.83 1011.96 1012.12 1012.34 1012.65 1013.04 1013.46 1013.88 1014.28 1014.64 1014.95 1015.25 1015.54 1015.85 1016.19 1016.55 1016.91 1017.23 1017.51 1017.74 1017.92 1018.07 1018.23 1018.40 1018.61 1018.84 1019.06 1019.26 1019.39 1019.45
1014.40 1014.95 1015.24 1015.21 1014.85 1014.21 1013.36 1012.41 1011.50 1010.74 1010.23 1010.00 1010.03 1010.28 1010.66 1011.09 1011.49 1011.81 1012.05 1012.22 1012.35 1012.51 1012.70 1012.96 1013.27 1013.62 1013.98 1014.32 1014.65 1014.96 1015.27 1015.60 1015.95 1016.34 1016.73 1017.12 1017.47 1017.77 1018.01 1018.19 1018.35 1018.49 1018.65 1018.82 1019.01 1019.18 1019.32 1019.41 1019.43
1014.35 1014.70 1014.78 1014.58 1014.12 1013.43 1012.61 1011.76 1010.97 1010.36 1009.97 1009.83 1009.94 1010.23 1010.63 1011.08 1011.51 1011.86 1012.14 1012.35 1012.53 1012.70 1012.90 1013.14 1013.41 1013.72 1014.03 1014.35 1014.67 1014.99 1015.32 1015.69 1016.08 1016.50 1016.93 1017.33 1017.70 1018.01 1018.25 1018.44 1018.58 1018.71 1018.83 1018.96 1019.08 1019.20 1019.28 1019.32 1019.31
1014.15 1014.30 1014.21 1013.87 1013.33 1012.64 1011.87 1011.11 1010.44 1009.94 1009.64 1009.56 1009.69 1009.98 1010.38 1010.83 1011.26 1011.64 1011.97 1012.24 1012.48 1012.70 1012.93 1013.18 1013.46 1013.76 1014.07 1014.38 1014.71 1015.05 1015.41 1015.80 1016.22 1016.66 1017.10 1017.51 1017.88 1018.19 1018.42 1018.60 1018.73 1018.83 1018.92 1019.00 1019.08 1019.15 1019.18 1019.19 1019.16
1013.87 1013.85 1013.60 1013.17 1012.58 1011.91 1011.21 1010.54 1009.97 1009.55 1009.30 1009.25 1009.36 1009.62 1009.98 1010.40 1010.82 1011.23 1011.60 1011.93 1012.24 1012.53 1012.81 1013.11 1013.42 1013.74 1014.07 1014.41 1014.76 1015.13 1015.51 1015.92 1016.35 1016.78 1017.21 1017.61 1017.96 1018.25 1018.47 1018.64 1018.75 1018.84 1018.91 1018.98 1019.03 1019.07 1019.09 1019.08 1019.06
1013.60 1013.43 1013.07 1012.56 1011.96 1011.32 1010.69 1010.11 1009.62 1009.26 1009.04 1008.97 1009.04 1009.25 1009.55 1009.92 1010.33 1010.74 1011.15 1011.54 1011.90 1012.26 1012.61 1012.96 1013.31 1013.68 1014.05 1014.42 1014.80 1015.19 1015.59 1016.00 1016.42 1016.82 1017.22 1017.58 1017.89 1018.16 1018.37 1018.53 1018.65 1018.74 1018.82 1018.90 1018.96 1019.01 1019.05 1019.07 1019.07
1013.41 1013.11 1012.66 1012.11 1011.53 1010.94 1010.38 1009.88 1009.46 1009.13 1008.92 1008.82 1008.85 1008.98 1009.23 1009.55 1009.93 1010.34 1010.75 1011.17 1011.58 1011.98 1012.37 1012.76 1013.15 1013.55 1013.96 1014.37 1014.78 1015.19 1015.60 1016.00 1016.38 1016.75 1017.10 1017.41 1017.69 1017.92 1018.12 1018.29 1018.43 1018.56 1018.68 1018.79 1018.89 1018.99 1019.08 1019.15 1019.22
1013.30 1012.91 1012.41 1011.86 1011.30 1010.77 1010.29 1009.86 1009.50 1009.20 1008.99 1008.87 1008.84 1008.93 1009.11 1009.39 1009.73 1010.11 1010.52 1010.93 1011.34 1011.74 1012.13 1012.53 1012.94 1013.36 1013.79 1014.23 1014.66 1015.10 1015.51 1015.89 1016.25 1016.57 1016.87 1017.13 1017.37 1017.59 1017.79 1017.98 1018.16 1018.33 1018.50 1018.67 1018.84 1019.01 1019.17 1019.32 1019.46
1013.27 1012.83 1012.31 1011.77 1011.27 1010.81 1010.40 1010.05 1009.74 1009.48 1009.27 1009.13 1009.07 1009.12 1009.26 1009.49 1009.79 1010.14 1010.50 1010.87 1011.23 1011.58 1011.93 1012.29 1012.67 1013.08 1013.52 1013.97 1014.43 1014.88 1015.31 1015.69 1016.03 1016.32 1016.58 1016.82 1017.03 1017.24 1017.45 1017.66 1017.88 1018.11 1018.34 1018.58 1018.82 1019.06 1019.29 1019.52 1019.74
1013.28 1012.81 1012.31 1011.83 1011.40 1011.02 1010.70 1010.42 1010.16 1009.93 1009.74 1009.59 1009.52 1009.54 1009.66 1009.85 1010.11 1010.40 1010.70 1010.98 1011.25 1011.50 1011.76 1012.04 1012.36 1012.73 1013.15 1013.61 1014.10 1014.58 1015.02 1015.43 1015.77 1016.07 1016.32 1016.54 1016.75 1016.96 1017.18 1017.42 1017.68 1017.95 1018.23 1018.52 1018.81 1019.11 1019.41 1019.70 1019.99
1013.26 1012.82 1012.38 1011.99 1011.66 1011.38 1011.15 1010.94 1010.74 1010.54 1010.36 1010.22 1010.15 1010.16 1010.25 1010.42 1010.63 1010.85 1011.06 1011.24 1011.38 1011.50 1011.63 1011.79 1012.02 1012.33 1012.72 1013.19 1013.70 1014.22 1014.72 1015.17 1015.55 1015.88 1016.15 1016.38 1016.61 1016.83 1017.08 1017.34 1017.62 1017.92 1018.22 1018.53 1018.85 1019.17 1019.50 1019.84 1020.18
1013.18 1012.81 1012.48 1012.21 1012.00 1011.85 1011.72 1011.59 1011.44 1011.27 1011.11 1010.97 1010.90 1010.89 1010.97 1011.10 1011.27 1011.42 1011.54 1011.59 1011.60 1011.57 1011.55 1011.58 1011.70 1011.94 1012.31 1012.78 1013.32 1013.90 1014.46 1014.99 1015.44 1015.83 1016.15 1016.42 1016.68 1016.93 1017.19 1017.46 1017.75 1018.04 1018.34 1018.64 1018.94 1019.26 1019.59 1019.94 1020.30
1013.00 1012.76 1012.57 1012.46 1012.42 1012.40 1012.38 1012.33 1012.23 1012.08 1011.92 1011.78 1011.70 1011.68 1011.74 1011.84 1011.95 1012.04 1012.06 1012.00 1011.88 1011.71 1011.55 1011.45 1011.48 1011.65 1011.99 1012.46 1013.05 1013.69 1014.34 1014.95 1015.50 1015.96 1016.35 1016.69 1016.99 1017.26 1017.54 1017.81 1018.08 1018.35 1018.61 1018.87 1019.14 1019.41 1019.72 1020.05 1020.41
1012.73 1012.64 1012.65 1012.74 1012.87 1013.02 1013.11 1013.14 1013.08 1012.94 1012.78 1012.62 1012.50 1012.46 1012.49 1012.56 1012.63 1012.66 1012.61 1012.46 1012.22 1011.95 1011.68 1011.49 1011.43 1011.55 1011.87 1012.35 1012.98 1013.69 1014.42 1015.12 1015.75 1016.31 1016.77 1017.17 1017.51 1017.82 1018.10 1018.35 1018.60 1018.83 1019.04 1019.24 1019.45 1019.67 1019.93 1020.23 1020.57
1012.39 1012.49 1012.71 1013.02 1013.35 1013.66 1013.88 1013.98 1013.95 1013.82 1013.62 1013.43 1013.28 1013.20 1013.19 1013.23 1013.26 1013.26 1013.16 1012.96 1012.67 1012.33 1012.00 1011.74 1011.65 1011.74 1012.04 1012.54 1013.19 1013.94 1014.74 1015.51 1016.22 1016.85 1017.38 1017.82 1018.20 1018.53 1018.81 1019.05 1019.27 1019.45 1019.61 1019.76 1019.91 1020.07 1020.28 1020.53 1020.84
1012.03 1012.34 1012.78 1013.30 1013.83 1014.30 1014.63 1014.80 1014.80 1014.66 1014.44 1014.20 1014.00 1013.88 1013.83 1013.84 1013.86 1013.84 1013.74 1013.54 1013.24 1012.90 1012.55 1012.29 1012.17 1012.26 1012.55 1013.05 1013.72 1014.49 1015.31 1016.12 1016.88 1017.54 1018.11 1018.59 1018.99 1019.32 1019.60 1019.83 1020.02 1020.17 1020.29 1020.39 1020.49 1020.61 1020.77 1020.98 1021.25
1011.71 1012.21 1012.85 1013.57 1014.28 1014.89 1015.32 1015.55 1015.57 1015.42 1015.17 1014.89 1014.65 1014.49 1014.42 1014.42 1014.44 1014.45 1014.38 1014.22 1013.97 1013.67 1013.36 1013.13 1013.04 1013.13 1013.42 1013.91 1014.56 1015.32 1016.13 1016.93 1017.68 1018.34 1018.92 1019.40 1019.80 1020.13 1020.40 1020.63 1020.80 1020.94 1021.04 1021.11 1021.18 1021.27 1021.39 1021.57 1021.80
1011.49 1012.14 1012.95 1013.83 1014.67 1015.38 1015.89 1016.16 1016.20 1016.04 1015.77 1015.47 1015.21 1015.03 1014.95 1014.96 1015.02 1015.08 1015.08 1015.01 1014.85 1014.64 1014.42 1014.25 1014.20 1014.31 1014.60 1015.06 1015.67 1016.38 1017.14 1017.89 1018.59 1019.21 1019.75 1020.21 1020.59 1020.91 1021.18 1021.40 1021.57 1021.70 1021.80 1021.87 1021.93 1022.00 1022.09 1022.23 1022.43
1011.42 1012.18 1013.09 1014.06 1014.97 1015.74 1016.29 1016.59 1016.64 1016.49 1016.22 1015.92 1015.66 1015.50 1015.45 1015.50 1015.62 1015.76 1015.86 1015.90 1015.87 1015.78 1015.67 1015.59 1015.60 1015.74 1016.02 1016.45 1016.99 1017.62 1018.29 1018.95 1019.57 1020.12 1020.60 1021.01 1021.35 1021.65 1021.90 1022.12 1022.30 1022.43 1022.54 1022.62 1022.68 1022.74 1022.82 1022.92 1023.07
1011.53 1012.33 1013.27 1014.25 1015.18 1015.95 1016.51 1016.81 1016.87 1016.75 1016.51 1016.24 1016.02 1015.91 1015.91 1016.04 1016.24 1016.48 1016.70 1016.88 1016.98 1017.03 1017.04 1017.06 1017.14 1017.30 1017.57 1017.96 1018.43 1018.96 1019.52 1020.07 1020.58 1021.04 1021.44 1021.78 1022.08 1022.35 1022.59 1022.80 1022.98 1023.13 1023.25 1023.33 1023.40 1023.45 1023.50 1023.56 1023.65
1011.83 1012.61 1013.50 1014.43 1015.30 1016.02 1016.54 1016.83 1016.90 1016.81 1016.63 1016.44 1016.30 1016.26 1016.36 1016.57 1016.88 1017.23 1017.57 1017.88 1018.12 1018.29 1018.43 1018.55 1018.69 1018.88 1019.15 1019.48 1019.88 1020.32 1020.76 1021.20 1021.60 1021.95 1022.27 1022.55 1022.80 1023.03 1023.24 1023.44 1023.62 1023.78 1023.90 1023.99 1024.05 1024.08 1024.10 1024.11 1024.13
1012.31 1013.01 1013.80 1014.61 1015.36 1015.98 1016.42 1016.68 1016.77 1016.73 1016.63 1016.54 1016.51 1016.59 1016.80 1017.12 1017.53 1017.98 1018.44 1018.86 1019.21 1019.50 1019.74 1019.95 1020.15 1020.38 1020.64 1020.93 1021.26 1021.61 1021.96 1022.29 1022.59 1022.86 1023.10 1023.31 1023.51 1023.70 1023.89 1024.07 1024.24 1024.39 1024.50 1024.58 1024.62 1024.62 1024.59 1024.54 1024.49
1012.95 1013.53 1014.17 1014.81 1015.39 1015.87 1016.23 1016.45 1016.55 1016.58 1016.57 1016.60 1016.70 1016.92 1017.24 1017.67 1018.18 1018.72 1019.26 1019.77 1020.22 1020.60 1020.92 1021.20 1021.45 1021.70 1021.96 1022.23 1022.51 1022.79 1023.07 1023.31 1023.54 1023.73 1023.90 1024.06 1024.22 1024.37 1024.53 1024.69 1024.83 1024.96 1025.05 1025.10 1025.10 1025.06 1024.98 1024.87 1024.74
Thickness
5781 5784 5783 5774 5752 5731 5734 5750 5763 5770 5777 5789 5794 5789 5784 5781 5775 5774 5796 5805 5802 5795 5789 5784 5781 5779 5777 5776 5775 5774 5773 5772 5770 5768 5767 5764 5762 5760 5759 5757 5755 5754 5752 5750 5749 5747 5746 5745 5744
5779 5781 5773 5756 5731 5717 5730 5752 5761 5771 5784 5793 5794 5793 5787 5786 5792 5791 5795 5799 5798 5793 5787 5782 5779 5776 5775 5773 5772 5771 5769 5767 5765 5764 5762 5760 5759 5757 5755 5754 5752 5750 5749 5747 5745 5744 5742 5741 5740
5776 5775 5755 5737 5723 5720 5738 5757 5764 5777 5790 5791 5788 5791 5788 5786 5792 5793 5797 5798 5794 5789 5784 5780 5777 5774 5772 5771 5769 5768 5766 5764 5762 5760 5758 5757 5755 5753 5752 5750 5749 5747 5745 5743 5742 5740 5739 5738 5737
5767 5756 5743 5727 5724 5735 5747 5760 5767 5771 5784 5792 5788 5783 5789 5797 5798 5798 5798 5796 5791 5786 5781 5778 5775 5772 5770 5769 5767 5765 5763 5761 5759 5757 5755 5753 5752 5750 5748 5747 5745 5743 5741 5739 5738 5736 5735 5735 5734
5756 5740 5724 5714 5726 5743 5755 5763 5769 5767 5775 5786 5787 5779 5782 5794 5801 5799 5796 5793 5788 5783 5779 5776 5773 5770 5768 5767 5765 5763 5760 5758 5757 5755 5753 5751 5749 5747 5746 5744 5742 5740 5738 5736 5734 5733 5732 5732 5731
5734 5727 5708 5706 5726 5746 5758 5767 5769 5768 5773 5783 5783 5776 5778 5790 5794 5794 5794 5790 5786 5782 5778 5774 5771 5769 5766 5765 5763 5760 5758 5756 5754 5752 5750 5749 5747 5745 5743 5741 5740 5738 5736 5733 5731 5730 5729 5729 5728
5724 5715 5709 5716 5727 5740 5759 5769 5768 5767 5769 5779 5785 5773 5774 5783 5789 5792 5790 5786 5782 5779 5776 5773 5770 5767 5765 5763 5761 5759 5757 5755 5753 5751 5749 5747 5745 5743 5741 5739 5738 5736 5733 5731 5729 5727 5726 5726 5725
5726 5714 5712 5714 5725 5738 5759 5766 5771 5770 5772 5788 5788 5773 5772 5782 5788 5788 5785 5781 5779 5776 5774 5771 5768 5766 5764 5762 5760 5758 5756 5753 5751 5749 5747 5745 5743 5741 5739 5737 5736 5734 5731 5729 5727 5725 5724 5723 5722
5725 5703 5701 5714 5725 5740 5755 5758 5766 5776 5776 5783 5788 5788 5790 5789 5786 5782 5778 5775 5774 5773 5772 5770 5768 5765 5763 5761 5759 5757 5755 5752 5750 5747 5745 5743 5741 5739 5738 5736 5734 5732 5730 5727 5725 5723 5721 5720 5719
5710 5695 5707 5724 5736 5743 5749 5753 5759 5766 5767 5773 5780 5786 5790 5786 5781 5777 5776 5774 5772 5771 5771 5770 5768 5766 5763 5761 5758 5756 5754 5752 5749 5747 5744 5742 5740 5738 5736 5734 5732 5731 5728 5726 5724 5721 5719 5717 5717
5707 5704 5715 5726 5737 5742 5744 5750 5759 5758 5759 5772 5776 5780 5783 5782 5779 5777 5776 5776 5775 5773 5771 5770 5768 5766 5763 5761 5758 5756 5753 5751 5748 5746 5744 5741 5739 5737 5735 5733 5731 5729 5727 5725 5722 5720 5717 5715 5714
5702 5710 5718 5728 5738 5740 5742 5748 5752 5757 5767 5784 5788 5787 5783 5781 5780 5779 5777 5775 5774 5772 5772 5771 5769 5766 5764 5761 5759 5755 5753 5750 5748 5745 5743 5741 5738 5735 5733 5731 5729 5727 5725 5723 5720 5718 5716 5714 5713
5700 5709 5720 5727 5731 5736 5741 5743 5749 5759 5776 5784 5788 5785 5782 5781 5781 5781 5780 5778 5775 5773 5773 5772 5771 5768 5764 5761 5759 5756 5753 5751 5748 5744 5742 5740 5737 5735 5732 5730 5728 5726 5723 5721 5719 5717 5715 5713 5712
5703 5709 5718 5724 5729 5736 5738 5743 5746 5762 5775 5778 5780 5778 5779 5779 5779 5779 5779 5778 5777 5776 5775 5773 5771 5769 5766 5762 5760 5757 5754 5750 5747 5744 5741 5739 5736 5734 5731 5729 5726 5724 5722 5719 5717 5715 5713 5711 5709
5703 5706 5712 5722 5727 5734 5736 5735 5746 5764 5769 5770 5772 5774 5775 5775 5777 5778 5781 5781 5780 5778 5776 5774 5772 5769 5767 5764 5760 5757 5754 5750 5746 5743 5740 5738 5735 5732 5730 5727 5725 5722 5719 5716 5714 5711 5709 5707 5705
5696 5696 5697 5717 5728 5733 5730 5724 5749 5759 5761 5761 5765 5769 5771 5772 5775 5777 5778 5778 5778 5777 5775 5774 5773 5769 5766 5764 5760 5757 5753 5749 5746 5743 5740 5737 5733 5730 5727 5724 5721 5719 5715 5712 5710 5707 5703 5701 5698
5679 5681 5692 5708 5724 5728 5726 5724 5742 5751 5754 5753 5758 5763 5767 5767 5769 5773 5775 5776 5776 5776 5774 5772 5772 5770 5766 5762 5758 5754 5750 5747 5743 5740 5737 5734 5731 5727 5723 5720 5717 5713 5710 5706 5704 5700 5697 5693 5690
5670 5679 5688 5697 5715 5720 5718 5720 5732 5741 5744 5745 5750 5755 5758 5759 5762 5767 5770 5771 5773 5773 5771 5770 5769 5767 5764 5759 5754 5750 5747 5742 5738 5735 5732 5729 5726 5723 5719 5714 5710 5707 5703 5699 5696 5693 5690 5686 5683
5677 5680 5681 5694 5712 5712 5709 5712 5721 5731 5734 5736 5739 5744 5748 5752 5757 5761 5764 5766 5768 5768 5767 5767 5764 5762 5759 5755 5751 5746 5741 5736 5732 5729 5725 5722 5719 5716 5712 5708 5703 5699 5696 5693 5689 5686 5681 5677 5675
5673 5674 5680 5694 5708 5709 5704 5704 5713 5720 5723 5726 5730 5734 5739 5742 5747 5751 5754 5757 5759 5761 5762 5762 5760 5758 5756 5753 5749 5742 5735 5729 5725 5720 5716 5713 5710 5707 5703 5699 5695 5692 5688 5684 5681 5678 5673 5668 5665
5671 5673 5682 5689 5697 5703 5702 5694 5700 5708 5714 5717 5719 5723 5728 5732 5736 5739 5742 5745 5748 5749 5751 5753 5753 5753 5752 5748 5742 5735 5728 5721 5716 5711 5705 5701 5698 5695 5691 5688 5686 5683 5680 5675 5672 5670 5666 5660 5655
5665 5684 5687 5689 5683 5678 5691 5674 5686 5696 5700 5704 5707 5711 5716 5721 5726 5729 5731 5734 5737 5740 5743 5745 5746 5745 5744 5741 5736 5730 5722 5714 5707 5700 5693 5690 5687 5684 5682 5678 5676 5673 5670 5666 5663 5660 5657 5653 5647
5676 5690 5690 5689 5683 5675 5679 5672 5673 5690 5690 5692 5696 5701 5705 5710 5714 5717 5720 5723 5726 5729 5732 5734 5735 5735 5735 5732 5728 5722 5713 5705 5697 5690 5683 5678 5674 5673 5670 5667 5665 5662 5658 5655 5652 5648 5645 5641 5637
5685 5684 5679 5672 5669 5661 5673 5669 5667 5678 5683 5686 5688 5691 5694 5699 5702 5705 5708 5711 5713 5715 5718 5719 5720 5719 5719 5718 5715 5710 5702 5694 5685 5677 5670 5665 5661 5658 5656 5653 5651 5649 5645 5642 5638 5634 5631 5627 5623
5678 5662 5648 5653 5647 5651 5667 5664 5663 5676 5683 5682 5681 5682 5684 5687 5690 5692 5693 5695 5697 5699 5701 5703 5703 5701 5700 5699 5696 5692 5686 5680 5673 5664 5658 5653 5648 5644 5640 5639 5637 5634 5630 5627 5623 5619 5615 5611 5608
5671 5665 5647 5645 5645 5646 5659 5657 5661 5671 5674 5675 5674 5674 5675 5675 5676 5677 5677 5679 5680 5681 5682 5684 5684 5683 5681 5678 5674 5670 5667 5664 5657 5651 5645 5640 5634 5629 5626 5624 5621 5618 5615 5612 5608 5604 5600 5596 5592
5669 5664 5668 5653 5650 5642 5645 5651 5657 5663 5664 5665 5665 5664 5663 5662 5662 5661 5661 5662 5662 5663 5663 5664 5665 5663 5661 5658 5654 5651 5648 5644 5639 5633 5628 5623 5618 5614 5611 5608 5605 5601 5598 5595 5592 5587 5583 5580 5576
5677 5667 5655 5647 5637 5632 5638 5643 5646 5653 5654 5654 5653 5652 5650 5649 5648 5646 5645 5645 5644 5644 5644 5644 5644 5643 5641 5639 5636 5631 5628 5624 5620 5615 5610 5605 5600 5596 5593 5591 5588 5583 5580 5577 5574 5570 5566 5562 5558
5667 5662 5651 5641 5643 5632 5627 5632 5649 5651 5650 5646 5642 5640 5637 5636 5634 5632 5630 5629 5629 5628 5627 5626 5625 5623 5621 5619 5615 5612 5608 5604 5601 5596 5591 5586 5583 5579 5575 5572 5569 5565 5561 5558 5555 5551 5548 5544 5540
5664 5658 5651 5643 5635 5633 5629 5628 5645 5646 5643 5638 5633 5629 5625 5622 5619 5618 5616 5614 5613 5611 5610 5607 5605 5604 5601 5599 5597 5594 5590 5586 5582 5578 5573 5570 5566 5562 5557 5554 5551 5547 5543 5539 5536 5532 5528 5525 5521